Location: Newark
(63.1158°N, 8.1461°E)
Time: 22:34:11
(UTC+00:00)

Envisat - Pass Details

Date: 14 December 2019
Orbit: 764 x 766 km, 98.1° (Epoch: 22 January)

Event Time Altitude Azimuth Distance (km) Brightness Sun altitude
Rises 05:25:47 0° 19° (NNE) 3,251 6.3 -20.1°
Reaches altitude 10° 05:28:25 10° 31° (NNE) 2,320 5.7 -19.8°
Maximum altitude 05:32:49 28° 90° (E) 1,410 5.1 -19.4°
Drops below altitude 10° 05:37:11 10° 149° (SSE) 2,306 6.1 -18.9°
Sets 05:39:47 0° 161° (SSE) 3,227 6.7 -18.6°
